Time,TemperatureF,DewpointF,PressureIn,WindDirection,WindDirectionDegrees,WindSpeedMPH,WindSpeedGustMPH,Humidity,HourlyPrecipIn,Conditions,Clouds,dailyrainin,SoftwareType,DateUTC
2013-04-03 00:02:00,44.0,42.0,29.90,West,270,0.0,1.0,92,0.00,,,0.46,,2013-04-03 05:02:00,
2013-04-03 00:12:00,44.0,42.0,29.90,West,270,0.0,1.0,92,0.00,,,0.46,,2013-04-03 05:12:00,
2013-04-03 00:22:00,44.0,42.0,29.89,West,270,0.0,1.0,92,0.00,,,0.46,,2013-04-03 05:22:00,
2013-04-03 00:32:00,44.0,42.0,29.88,NW,315,0.0,2.0,92,0.01,,,0.47,,2013-04-03 05:32:00,
2013-04-03 00:42:00,44.0,42.0,29.88,NW,315,0.0,2.0,92,0.01,,,0.47,,2013-04-03 05:42:00,
2013-04-03 00:52:00,44.0,42.0,29.87,North,360,2.0,11.0,92,0.01,,,0.47,,2013-04-03 05:52:00,
2013-04-03 01:02:00,44.0,42.0,29.88,NE,45,0.0,2.0,92,0.01,,,0.47,,2013-04-03 06:02:00,
2013-04-03 01:12:00,44.0,42.0,29.88,NE,45,0.0,2.0,92,0.01,,,0.47,,2013-04-03 06:12:00,
2013-04-03 01:22:00,44.0,42.0,29.85,North,360,0.0,2.0,91,0.01,,,0.47,,2013-04-03 06:22:00,
2013-04-03 01:32:00,44.0,42.0,29.84,NW,315,7.0,15.0,91,0.01,,,0.47,,2013-04-03 06:32:00,
2013-04-03 01:42:00,44.0,42.0,29.84,NW,315,7.0,15.0,91,0.01,,,0.47,,2013-04-03 06:42:00,
2013-04-03 01:52:00,44.0,41.0,29.83,NW,315,7.0,17.0,90,0.00,,,0.47,,2013-04-03 06:52:00,
2013-04-03 02:02:00,43.0,40.0,29.83,North,360,4.0,15.0,89,0.00,,,0.47,,2013-04-03 07:02:00,
2013-04-03 02:12:00,43.0,40.0,29.83,North,360,4.0,15.0,89,0.00,,,0.47,,2013-04-03 07:12:00,
2013-04-03 02:23:00,43.0,40.0,29.84,NW,315,0.0,14.0,88,0.00,,,0.47,,2013-04-03 07:23:00,
2013-04-03 02:32:00,43.0,39.0,29.85,West,270,0.0,5.0,87,0.00,,,0.47,,2013-04-03 07:32:00,
2013-04-03 02:42:00,43.0,39.0,29.85,West,270,0.0,5.0,87,0.00,,,0.47,,2013-04-03 07:42:00,
2013-04-03 02:52:00,44.0,40.0,29.84,SW,225,0.0,2.0,87,0.00,,,0.47,,2013-04-03 07:52:00,
2013-04-03 03:03:00,44.0,40.0,29.85,West,270,0.0,2.0,87,0.00,,,0.47,,2013-04-03 08:03:00,
2013-04-03 03:12:00,44.0,40.0,29.85,West,270,0.0,2.0,87,0.00,,,0.47,,2013-04-03 08:12:00,
2013-04-03 03:22:00,44.0,40.0,29.85,NW,315,0.0,2.0,87,0.00,,,0.47,,2013-04-03 08:22:00,
2013-04-03 03:32:00,44.0,40.0,29.85,West,270,5.0,13.0,85,0.00,,,0.47,,2013-04-03 08:32:00,
2013-04-03 03:42:00,44.0,40.0,29.85,West,270,5.0,13.0,85,0.00,,,0.47,,2013-04-03 08:42:00,
2013-04-03 03:52:00,44.0,39.0,29.85,NW,315,0.0,13.0,84,0.00,,,0.47,,2013-04-03 08:52:00,
2013-04-03 04:02:00,44.0,39.0,29.85,NW,315,1.0,11.0,84,0.00,,,0.47,,2013-04-03 09:02:00,
2013-04-03 04:12:00,44.0,39.0,29.85,NW,315,1.0,11.0,84,0.00,,,0.47,,2013-04-03 09:12:00,
2013-04-03 04:22:00,44.0,39.0,29.87,NW,315,4.0,15.0,83,0.00,,,0.47,,2013-04-03 09:22:00,
2013-04-03 04:33:00,44.0,39.0,29.86,NW,315,3.0,12.0,83,0.00,,,0.47,,2013-04-03 09:33:00,
2013-04-03 04:43:00,44.0,39.0,29.86,NW,315,3.0,12.0,83,0.00,,,0.47,,2013-04-03 09:43:00,
2013-04-03 04:53:00,44.0,39.0,29.87,NW,315,0.0,10.0,83,0.00,,,0.47,,2013-04-03 09:53:00,
2013-04-03 05:03:00,44.0,39.0,29.88,West,270,0.0,7.0,83,0.00,,,0.47,,2013-04-03 10:03:00,
2013-04-03 05:12:00,44.0,39.0,29.88,West,270,0.0,7.0,83,0.00,,,0.47,,2013-04-03 10:12:00,
2013-04-03 05:22:00,44.0,39.0,29.88,West,270,0.0,7.0,83,0.00,,,0.47,,2013-04-03 10:22:00,
2013-04-03 05:33:00,44.0,38.0,29.88,West,270,5.0,8.0,80,0.00,,,0.47,,2013-04-03 10:33:00,
2013-04-03 05:42:00,44.0,38.0,29.88,West,270,5.0,8.0,80,0.00,,,0.47,,2013-04-03 10:42:00,
2013-04-03 05:53:00,44.0,38.0,29.88,NW,315,0.0,2.0,79,0.00,,,0.47,,2013-04-03 10:53:00,
2013-04-03 06:02:00,44.0,38.0,29.88,North,360,0.0,11.0,79,0.00,,,0.47,,2013-04-03 11:02:00,
2013-04-03 06:12:00,44.0,38.0,29.88,North,360,0.0,11.0,79,0.00,,,0.47,,2013-04-03 11:12:00,
2013-04-03 06:22:00,44.0,38.0,29.88,West,270,0.0,1.0,79,0.00,,,0.47,,2013-04-03 11:22:00,
2013-04-03 06:32:00,44.0,38.0,29.87,NW,315,0.0,11.0,78,0.00,,,0.47,,2013-04-03 11:32:00,
2013-04-03 06:42:00,44.0,38.0,29.87,NW,315,0.0,11.0,78,0.00,,,0.47,,2013-04-03 11:42:00,
2013-04-03 06:53:00,44.0,38.0,29.87,NW,315,0.0,1.0,78,0.00,,,0.47,,2013-04-03 11:53:00,
2013-04-03 07:02:00,44.0,37.0,29.88,NW,315,2.0,8.0,75,0.00,,,0.47,,2013-04-03 12:02:00,
2013-04-03 07:13:00,44.0,37.0,29.88,NW,315,2.0,8.0,75,0.00,,,0.47,,2013-04-03 12:13:00,
2013-04-03 07:22:00,44.0,37.0,29.88,West,270,0.0,2.0,75,0.00,,,0.47,,2013-04-03 12:22:00,
2013-04-03 07:32:00,44.0,36.0,29.88,NW,315,0.0,8.0,73,0.00,,,0.47,,2013-04-03 12:32:00,
2013-04-03 07:42:00,44.0,36.0,29.88,NW,315,0.0,8.0,73,0.00,,,0.47,,2013-04-03 12:42:00,
2013-04-03 07:52:00,44.0,35.0,29.88,NW,315,0.0,2.0,71,0.00,,,0.47,,2013-04-03 12:52:00,
2013-04-03 08:02:00,44.0,34.0,29.89,West,270,0.0,14.0,68,0.00,,,0.47,,2013-04-03 13:02:00,
2013-04-03 08:12:00,44.0,34.0,29.89,West,270,0.0,14.0,68,0.00,,,0.47,,2013-04-03 13:12:00,
2013-04-03 08:22:00,44.0,33.0,29.90,North,360,0.0,12.0,66,0.00,,,0.47,,2013-04-03 13:22:00,
2013-04-03 08:32:00,45.0,34.0,29.90,West,270,0.0,1.0,65,0.00,,,0.47,,2013-04-03 13:32:00,
2013-04-03 08:42:00,45.0,34.0,29.90,West,270,0.0,1.0,65,0.00,,,0.47,,2013-04-03 13:42:00,
2013-04-03 08:52:00,45.0,32.0,29.91,NW,315,0.0,11.0,60,0.00,,,0.47,,2013-04-03 13:52:00,
2013-04-03 09:02:00,45.0,32.0,29.91,NW,315,0.0,11.0,60,0.00,,,0.47,,2013-04-03 14:02:00,
2013-04-03 09:12:00,45.0,32.0,29.91,NW,315,0.0,11.0,60,0.00,,,0.47,,2013-04-03 14:12:00,
2013-04-03 09:22:00,46.0,32.0,29.91,NW,315,5.0,10.0,58,0.00,,,0.47,,2013-04-03 14:22:00,
2013-04-03 09:32:00,46.0,31.0,29.92,West,270,0.0,8.0,55,0.00,,,0.47,,2013-04-03 14:32:00,
2013-04-03 09:43:00,46.0,31.0,29.92,West,270,0.0,8.0,55,0.00,,,0.47,,2013-04-03 14:43:00,
2013-04-03 09:52:00,46.0,30.0,29.92,NW,315,4.0,13.0,53,0.00,,,0.47,,2013-04-03 14:52:00,
2013-04-03 10:02:00,46.0,29.0,29.92,West,270,0.0,18.0,52,0.00,,,0.47,,2013-04-03 15:02:00,
2013-04-03 10:12:00,46.0,29.0,29.92,West,270,0.0,18.0,52,0.00,,,0.47,,2013-04-03 15:12:00,
2013-04-03 10:23:00,46.0,29.0,29.92,North,360,6.0,11.0,51,0.00,,,0.47,,2013-04-03 15:23:00,
2013-04-03 10:33:00,47.0,29.0,29.91,NW,315,8.0,15.0,50,0.00,,,0.47,,2013-04-03 15:33:00,
2013-04-03 10:43:00,47.0,29.0,29.91,NW,315,8.0,15.0,50,0.00,,,0.47,,2013-04-03 15:43:00,
2013-04-03 10:53:00,47.0,30.0,29.90,NW,315,0.0,21.0,51,0.00,,,0.47,,2013-04-03 15:53:00,
2013-04-03 11:03:00,47.0,30.0,29.92,NW,315,0.0,3.0,51,0.00,,,0.47,,2013-04-03 16:03:00,
2013-04-03 11:12:00,47.0,30.0,29.92,NW,315,0.0,3.0,51,0.00,,,0.47,,2013-04-03 16:12:00,
2013-04-03 11:24:00,47.0,29.0,29.91,West,270,4.0,15.0,49,0.00,,,0.47,,2013-04-03 16:24:00,
2013-04-03 11:32:00,47.0,29.0,29.91,NW,315,6.0,14.0,49,0.00,,,0.47,,2013-04-03 16:32:00,
2013-04-03 11:43:00,47.0,29.0,29.91,NW,315,6.0,14.0,49,0.00,,,0.47,,2013-04-03 16:43:00,
2013-04-03 11:52:00,48.0,28.0,29.89,West,270,0.0,16.0,46,0.00,,,0.47,,2013-04-03 16:52:00,
2013-04-03 12:03:00,50.0,29.0,29.89,WNW,292,10.0,18.0,45,0.00,,,0.47,,2013-04-03 17:03:00,
2013-04-03 12:13:00,50.0,29.0,29.89,WNW,292,10.0,18.0,45,0.00,,,0.47,,2013-04-03 17:13:00,
2013-04-03 12:23:00,51.0,28.0,29.89,NW,315,9.0,18.0,41,0.00,,,0.47,,2013-04-03 17:23:00,
2013-04-03 12:33:00,52.0,30.0,29.88,NW,315,4.0,21.0,43,0.00,,,0.47,,2013-04-03 17:33:00,
2013-04-03 12:45:00,52.0,30.0,29.88,NW,315,4.0,21.0,43,0.00,,,0.47,,2013-04-03 17:45:00,
2013-04-03 12:54:00,52.0,28.0,29.89,West,270,9.0,18.0,40,0.00,,,0.47,,2013-04-03 17:54:00,
2013-04-03 13:02:00,52.0,28.0,29.89,NE,45,6.0,17.0,40,0.00,,,0.47,,2013-04-03 18:02:00,
2013-04-03 13:12:00,52.0,28.0,29.89,NE,45,6.0,17.0,40,0.00,,,0.47,,2013-04-03 18:12:00,
2013-04-03 13:22:00,52.0,28.0,29.89,NE,45,6.0,17.0,40,0.00,,,0.47,,2013-04-03 18:22:00,
2013-04-03 13:33:00,52.0,28.0,29.89,NW,315,4.0,18.0,39,0.00,,,0.47,,2013-04-03 18:33:00,
2013-04-03 13:42:00,52.0,28.0,29.89,NW,315,4.0,18.0,39,0.00,,,0.47,,2013-04-03 18:42:00,
2013-04-03 13:52:00,52.0,28.0,29.88,NW,315,6.0,14.0,40,0.00,,,0.47,,2013-04-03 18:52:00,
2013-04-03 14:03:00,53.0,28.0,29.88,West,270,4.0,14.0,38,0.00,,,0.47,,2013-04-03 19:03:00,
2013-04-03 14:12:00,53.0,28.0,29.88,West,270,4.0,14.0,38,0.00,,,0.47,,2013-04-03 19:12:00,
2013-04-03 14:22:00,54.0,28.0,29.88,NW,315,5.0,11.0,36,0.00,,,0.47,,2013-04-03 19:22:00,
2013-04-03 14:32:00,53.0,27.0,29.88,North,360,0.0,12.0,37,0.00,,,0.47,,2013-04-03 19:32:00,
2013-04-03 14:42:00,53.0,27.0,29.88,North,360,0.0,12.0,37,0.00,,,0.47,,2013-04-03 19:42:00,
2013-04-03 14:52:00,53.0,26.0,29.88,West,270,0.0,1.0,35,0.00,,,0.47,,2013-04-03 19:52:00,
2013-04-03 15:02:00,53.0,26.0,29.89,North,360,7.0,11.0,35,0.00,,,0.47,,2013-04-03 20:02:00,
2013-04-03 15:12:00,53.0,26.0,29.89,North,360,7.0,11.0,35,0.00,,,0.47,,2013-04-03 20:12:00,
2013-04-03 15:23:00,52.0,26.0,29.90,NW,315,0.0,15.0,36,0.00,,,0.47,,2013-04-03 20:23:00,
2013-04-03 15:32:00,52.0,25.0,29.90,West,270,0.0,4.0,35,0.00,,,0.47,,2013-04-03 20:32:00,
2013-04-03 15:42:00,52.0,25.0,29.90,West,270,0.0,4.0,35,0.00,,,0.47,,2013-04-03 20:42:00,
2013-04-03 15:53:00,52.0,25.0,29.91,West,270,0.0,2.0,35,0.00,,,0.47,,2013-04-03 20:53:00,
2013-04-03 16:02:00,52.0,25.0,29.90,NW,315,0.0,2.0,34,0.00,,,0.47,,2013-04-03 21:02:00,
2013-04-03 16:12:00,52.0,25.0,29.90,NW,315,0.0,2.0,34,0.00,,,0.47,,2013-04-03 21:12:00,
2013-04-03 16:22:00,52.0,24.0,29.89,NW,315,0.0,2.0,33,0.00,,,0.47,,2013-04-03 21:22:00,
2013-04-03 16:33:00,52.0,24.0,29.89,NW,315,0.0,2.0,33,0.00,,,0.47,,2013-04-03 21:33:00,
2013-04-03 16:42:00,52.0,24.0,29.89,NW,315,0.0,2.0,33,0.00,,,0.47,,2013-04-03 21:42:00,
2013-04-03 16:52:00,52.0,25.0,29.89,NW,315,0.0,1.0,34,0.00,,,0.47,,2013-04-03 21:52:00,
2013-04-03 17:02:00,52.0,24.0,29.88,West,270,0.0,2.0,33,0.00,,,0.47,,2013-04-03 22:02:00,
2013-04-03 17:12:00,52.0,24.0,29.88,West,270,0.0,2.0,33,0.00,,,0.47,,2013-04-03 22:12:00,
2013-04-03 17:22:00,52.0,22.0,29.87,North,360,0.0,2.0,31,0.00,,,0.47,,2013-04-03 22:22:00,
2013-04-03 17:32:00,51.0,21.0,29.88,West,270,0.0,11.0,30,0.00,,,0.47,,2013-04-03 22:32:00,
2013-04-03 17:42:00,51.0,21.0,29.88,West,270,0.0,11.0,30,0.00,,,0.47,,2013-04-03 22:42:00,
2013-04-03 17:52:00,51.0,21.0,29.88,West,270,0.0,11.0,30,0.00,,,0.47,,2013-04-03 22:52:00,
2013-04-03 18:02:00,51.0,21.0,29.88,West,270,0.0,11.0,30,0.00,,,0.47,,2013-04-03 23:02:00,
2013-04-03 18:12:00,51.0,21.0,29.88,West,270,0.0,11.0,30,0.00,,,0.47,,2013-04-03 23:12:00,
2013-04-03 18:22:00,50.0,21.0,29.87,NW,315,0.0,15.0,32,0.00,,,0.47,,2013-04-03 23:22:00,
2013-04-03 18:33:00,50.0,21.0,29.87,NW,315,6.0,12.0,31,0.00,,,0.47,,2013-04-03 23:33:00,
2013-04-03 18:43:00,50.0,21.0,29.87,NW,315,6.0,12.0,31,0.00,,,0.47,,2013-04-03 23:43:00,
2013-04-03 18:54:00,50.0,22.0,29.87,NW,315,0.0,12.0,33,0.00,,,0.47,,2013-04-03 23:54:00,
2013-04-03 19:02:00,49.0,20.0,29.87,West,270,0.0,2.0,32,0.00,,,0.47,,2013-04-04 00:02:00,
2013-04-03 19:12:00,49.0,20.0,29.87,West,270,0.0,2.0,32,0.00,,,0.47,,2013-04-04 00:12:00,
2013-04-03 19:22:00,49.0,23.0,29.87,NW,315,4.0,10.0,36,0.00,,,0.47,,2013-04-04 00:22:00,
2013-04-03 19:32:00,49.0,23.0,29.87,NW,315,4.0,10.0,36,0.00,,,0.47,,2013-04-04 00:32:00,
2013-04-03 19:43:00,49.0,23.0,29.87,NW,315,4.0,10.0,36,0.00,,,0.47,,2013-04-04 00:43:00,
2013-04-03 19:52:00,48.0,23.0,29.88,NW,315,0.0,2.0,37,0.00,,,0.47,,2013-04-04 00:52:00,
2013-04-03 20:02:00,48.0,25.0,29.88,West,270,0.0,2.0,40,0.00,,,0.44,,2013-04-04 01:02:00,
2013-04-03 20:12:00,48.0,25.0,29.88,West,270,0.0,2.0,40,0.00,,,0.44,,2013-04-04 01:12:00,
2013-04-03 20:22:00,48.0,25.0,29.88,West,270,0.0,2.0,40,0.00,,,0.44,,2013-04-04 01:22:00,
2013-04-03 20:32:00,47.0,24.0,29.88,West,270,0.0,2.0,40,0.00,,,0.33,,2013-04-04 01:32:00,
2013-04-03 20:43:00,47.0,24.0,29.88,West,270,0.0,2.0,40,0.00,,,0.33,,2013-04-04 01:43:00,
2013-04-03 20:52:00,47.0,25.0,29.88,West,270,0.0,2.0,41,0.00,,,0.17,,2013-04-04 01:52:00,
2013-04-03 21:02:00,47.0,25.0,29.88,West,270,0.0,2.0,42,0.00,,,0.13,,2013-04-04 02:02:00,
2013-04-03 21:12:00,47.0,25.0,29.88,West,270,0.0,2.0,42,0.00,,,0.13,,2013-04-04 02:12:00,
2013-04-03 21:22:00,47.0,26.0,29.88,West,270,0.0,0.0,43,0.00,,,0.11,,2013-04-04 02:22:00,
2013-04-03 21:32:00,47.0,26.0,29.88,SW,225,0.0,0.0,44,0.00,,,0.07,,2013-04-04 02:32:00,
2013-04-03 21:42:00,47.0,26.0,29.88,SW,225,0.0,0.0,44,0.00,,,0.07,,2013-04-04 02:42:00,
2013-04-03 21:52:00,47.0,26.0,29.88,SW,225,0.0,0.0,44,0.00,,,0.07,,2013-04-04 02:52:00,
2013-04-03 22:02:00,47.0,26.0,29.89,West,270,0.0,0.0,44,0.00,,,0.05,,2013-04-04 03:02:00,
2013-04-03 22:12:00,47.0,26.0,29.89,West,270,0.0,0.0,44,0.00,,,0.05,,2013-04-04 03:12:00,
2013-04-03 22:22:00,47.0,27.0,29.91,North,360,0.0,0.0,46,0.00,,,0.04,,2013-04-04 03:22:00,
2013-04-03 22:33:00,47.0,26.0,29.92,North,360,0.0,1.0,44,0.00,,,0.02,,2013-04-04 03:33:00,
2013-04-03 22:45:00,47.0,26.0,29.92,North,360,0.0,1.0,44,0.00,,,0.02,,2013-04-04 03:45:00,
2013-04-03 22:53:00,47.0,26.0,29.92,SW,225,0.0,0.0,44,0.00,,,0.01,,2013-04-04 03:53:00,
2013-04-03 23:03:00,47.0,26.0,29.93,West,270,0.0,0.0,44,0.00,,,0.01,,2013-04-04 04:03:00,
2013-04-03 23:12:00,47.0,26.0,29.93,West,270,0.0,0.0,44,0.00,,,0.01,,2013-04-04 04:12:00,
2013-04-03 23:23:00,47.0,27.0,29.93,West,270,0.0,0.0,45,0.00,,,0.01,,2013-04-04 04:23:00,
2013-04-03 23:33:00,46.0,26.0,29.93,SSE,158,0.0,0.0,45,0.00,,,0.01,,2013-04-04 04:33:00,
2013-04-03 23:43:00,46.0,26.0,29.93,SSE,158,0.0,0.0,45,0.00,,,0.01,,2013-04-04 04:43:00,
2013-04-03 23:52:00,46.0,27.0,29.92,SSE,158,0.0,0.0,48,0.00,,,0.01,,2013-04-04 04:52:00,